Location: Unspecified
(52.0000°N, 4.4000°E)
Time: 23:52:31
(UTC+00:00)

Cosmos 1980 Rocket - Pass Details

Date: 14 May 2025
Orbit: 829 x 848 km, 71.0° (Epoch: 22 June)

Event Time Altitude Azimuth Distance (km) Brightness Sun altitude
Rises 20:20:39 0° 329° (NNW) 3,384 7.2 -7.1°
Reaches altitude 10° 20:23:42 10° 345° (NNW) 2,447 5.7 -7.4°
Maximum altitude 20:27:57 22° 34° (NE) 1,768 4.0 -7.9°
Drops below altitude 10° 20:32:11 10° 84° (E) 2,442 4.3 -8.4°
Enters shadow 20:34:26 - 97° (E) 3,121 4.7 -8.6°
